Flag for China Weather past 2 weeks in Changsha, Hunan, China

Now
64 °F

Light rain. Fog.


Feels Like: 64 °F
Forecast: 53 / 63 °F
Wind: 8 mph from Northwest

Location: Changsha

Current Time: Apr 19, 2015 at 12:16:20 PM

Latest Report: Apr 19, 2015 at 11:00 AM


Visibility: 2 mi

Pressure: 29.71 "Hg

Humidity: 88%

Dew point: 61 °F

Location of ChangshaLocation

Historic Weather in Changsha — Graph

°F

Changsha temperature yesterday

Maximum temperature yesterday: 81 °F (at 3:00 PM)
Minimum temperature yesterday: 68 °F (at 5:00 AM)
Average temperature yesterday: 74 °F

Past Weeks' High & Low Weather Summary

 TemperatureHumidityPressure
High90 °F (Apr 16, 3:00 PM)94% (Apr 4, 9:00 PM)30.39 "Hg (Apr 4, 9:00 PM)
Low43 °F (Apr 14, 5:00 AM)20% (Apr 13, 2:00 PM)29.56 "Hg (Apr 18, 4:00 PM)
Average60 °F71%30.02 "Hg
* Reported Apr 4 10:00 AM — Apr 19 10:00 AM, Changsha, Weather by CustomWeather, © 2015

Note: Actual official high and low records may vary slightly from our data, if they occured in-between our weather recording intervals... More about our weather records

Advertising

Changsha weather history for previous 24 hours

 ConditionsComfort  
Time TempWeatherWind HumidityBarometerVisibility
10:00 AM
Sun, Apr 19
64 °FDrizzle. Fog.6 mph94%29.71 "Hg2 mi
9:00 AM64 °FFog.6 mph94%29.71 "Hg2 mi
8:00 AM64 °FLight rain. Cloudy.6 mph94%29.68 "Hg4 mi
7:00 AM66 °FSprinkles. Fog.3 mph94%29.65 "Hg1 mi
6:00 AM66 °FThunderstorms. Fog.6 mph88%29.65 "Hg1 mi
5:00 AM66 °FThunderstorms. Fog.6 mph88%29.65 "Hg1 mi
4:00 AM66 °FFog.3 mph88%29.65 "Hg1 mi
3:00 AM66 °FFog.6 mph88%29.65 "Hg1 mi
2:00 AM66 °FFog.3 mph83%29.68 "Hg2 mi
1:00 AM68 °FFog.6 mph78%29.71 "Hg2 mi
12:00 AM70 °FFog.8 mph73%29.68 "Hg3 mi
11:00 PM
Sat, Apr 18
70 °FFog.8 mph78%29.68 "Hg3 mi
10:00 PM72 °FFog.6 mph73%29.68 "Hg3 mi
9:00 PM75 °FOvercast.1 mph61%29.62 "Hg5 mi
8:00 PM75 °FOvercast.3 mph65%29.62 "Hg4 mi
7:00 PM75 °FOvercast.3 mph69%29.59 "Hg5 mi
6:00 PM77 °FOvercast.6 mph61%29.56 "Hg6 mi
5:00 PM79 °FOvercast.8 mph58%29.56 "HgN/A
4:00 PM79 °FPassing clouds.6 mph58%29.56 "HgN/A
3:00 PM81 °FPassing clouds.6 mph54%29.59 "HgN/A
2:00 PM79 °FSunny.6 mph54%29.62 "Hg10 mi
1:00 PM77 °FSunny.8 mph57%29.65 "Hg10 mi
12:00 PM77 °FClear.8 mph54%29.68 "Hg6 mi
Weather by CustomWeather, © 2015

See weather overviewHow to use our weather pages